GW3KLB Llansilin UK current weather conditions

sailwx.info

Wind from 256 at 5 knots gusting 6

Air temperature 17.2° C

Last reported at 2019-Sep-15 13:00 UTC.
Time now 2019-Sep-15 14:16 UTC

Location: N 52°51' W 003°12'.
View on Google Maps.

See reports from other nearby stations

  
Tides and Currents Weather Stations Pressure Air Temp Water Temp Dewpoint Dewpoint Depression Visibility Wind Speed Wind Dir Waves Ship Positions
date/time (UTC)wind fromknots sea level pressurealtimeterstation pressurevisibilityair tempwater tempwave heightnotes
2019-Sep-15 13:00 256 5 gusting 6 17.2
2019-Sep-15 12:50 265 4 gusting 8 16.7
2019-Sep-15 12:40 252 3 gusting 8 16.7
2019-Sep-15 12:30 254 4 gusting 7 16.7
2019-Sep-15 12:20 261 4 gusting 6 16.7
2019-Sep-15 12:10 249 4 gusting 6 16.7
2019-Sep-15 12:00 252 3 gusting 6 17.2
2019-Sep-15 11:50 254 3 gusting 4 16.7
2019-Sep-15 11:40 229 2 gusting 4 16.7
2019-Sep-15 11:30 250 4 gusting 6 16.7
2019-Sep-15 11:20 255 2 gusting 3 16.7
2019-Sep-15 11:10 270 2 gusting 5 16.1
2019-Sep-15 11:00 240 3 gusting 5 16.1
2019-Sep-15 10:50 233 2 gusting 4 16.1
2019-Sep-15 10:40 242 1 gusting 2 15.6
2019-Sep-15 10:30 237 1 gusting 2 15.6
2019-Sep-15 10:20 259 2 gusting 4 15.6
2019-Sep-15 10:10 240 2 gusting 4 15.6
2019-Sep-15 10:00 229 2 gusting 4 15.6
2019-Sep-15 09:50 262 2 gusting 3 15.0
2019-Sep-15 09:40 256 2 gusting 5 15.0
2019-Sep-15 09:30 241 2 gusting 5 15.0
2019-Sep-15 09:20 265 2 gusting 4 15.0
2019-Sep-15 09:10 267 4 gusting 7 15.0
2019-Sep-15 09:00 262 2 gusting 4 14.4
2019-Sep-15 08:50 270 2 gusting 5 14.4
2019-Sep-15 08:40 259 1 gusting 4 14.4
2019-Sep-15 08:30 250 0 gusting 2 14.4
2019-Sep-15 08:20 249 0 gusting 1 14.4
2019-Sep-15 08:10 265 0 gusting 2 14.4
2019-Sep-15 08:00 270 14.4
2019-Sep-15 07:50 261 13.9
2019-Sep-15 07:40 252 1 gusting 3 13.9
2019-Sep-15 07:30 270 0 gusting 2 13.9
2019-Sep-15 07:20 264 1 gusting 2 13.9
2019-Sep-15 07:10 202 13.9
2019-Sep-15 07:00 13.9
2019-Sep-15 06:50 180 13.9
2019-Sep-15 06:40 106 13.9
2019-Sep-15 06:30 067 13.9
2019-Sep-15 06:20 252 13.9
2019-Sep-15 06:10 225 13.9
2019-Sep-15 06:00 266 2 gusting 4 13.9
2019-Sep-15 05:50 257 2 gusting 5 13.9
2019-Sep-15 05:40 263 1 gusting 3 13.9
2019-Sep-15 05:30 256 2 gusting 4 13.9
2019-Sep-15 05:20 270 2 gusting 5 13.9
2019-Sep-15 05:10 265 3 gusting 6 13.9
2019-Sep-15 05:00 267 2 gusting 4 13.9
2019-Sep-15 04:50 265 2 gusting 5 13.9
2019-Sep-15 04:40 272 3 gusting 5 13.9
2019-Sep-15 04:30 274 3 gusting 6 13.9
2019-Sep-15 04:20 265 3 gusting 6 13.3
2019-Sep-15 04:10 270 2 gusting 4 13.3
2019-Sep-15 04:00 253 1 gusting 4 13.3
2019-Sep-15 03:50 260 0 gusting 2 13.3
2019-Sep-15 03:40 242 1 gusting 1 12.8
2019-Sep-15 03:30 12.8
2019-Sep-15 03:20 12.8
2019-Sep-15 03:10 12.8
2019-Sep-15 03:00 12.8
2019-Sep-15 02:50 12.8
2019-Sep-15 02:40 008 12.8
2019-Sep-15 02:30 010 12.2
2019-Sep-15 02:20 025 1 gusting 2 12.2
2019-Sep-15 02:10 017 12.2
2019-Sep-15 02:00 020 1 gusting 2 11.7
2019-Sep-15 01:50 029 1 gusting 2 11.7
2019-Sep-15 01:40 014 0 gusting 1 12.2
2019-Sep-15 01:30 319 12.2
2019-Sep-15 01:20 265 0 gusting 1 12.2
2019-Sep-15 01:10 323 12.2
2019-Sep-15 01:00 358 0 gusting 1 11.7
2019-Sep-15 00:50 007 0 gusting 2 11.7
2019-Sep-15 00:40 12.2
2019-Sep-15 00:30 355 0 gusting 1 12.2
2019-Sep-15 00:20 353 0 gusting 2 12.2
2019-Sep-15 00:10 288 0 gusting 1 12.2
2019-Sep-15 00:00 347 0 gusting 1 12.2
2019-Sep-14 23:50 301 0 gusting 1 12.8
2019-Sep-14 23:40 290 0 gusting 2 12.8
2019-Sep-14 23:30 265 2 gusting 4 12.8
2019-Sep-14 23:20 332 0 gusting 3 12.8
2019-Sep-14 23:10 294 1 gusting 4 13.3
2019-Sep-14 23:00 279 3 gusting 6 13.3
2019-Sep-14 22:50 293 1 gusting 4 13.3
2019-Sep-14 22:40 281 3 gusting 5 13.3
2019-Sep-14 22:30 292 6 gusting 8 13.3
2019-Sep-14 22:20 285 6 gusting 10 13.3
2019-Sep-14 22:10 272 7 gusting 10 13.3
2019-Sep-14 22:00 282 6 gusting 8 13.3
2019-Sep-14 21:50 270 6 gusting 8 13.3
2019-Sep-14 21:40 283 5 gusting 8 13.3
2019-Sep-14 21:30 261 5 gusting 7 13.3
2019-Sep-14 21:20 283 5 gusting 8 13.3
2019-Sep-14 21:10 275 4 gusting 6 13.3
2019-Sep-14 21:00 267 5 gusting 8 13.3
2019-Sep-14 20:50 270 2 gusting 5 13.3
2019-Sep-14 20:40 277 0 gusting 2 13.3
2019-Sep-14 20:30 014 0 gusting 1 13.3
2019-Sep-14 20:20 090 1 gusting 3 13.3
2019-Sep-14 20:10 110 13.9
2019-Sep-14 20:00 277 2 gusting 3 13.9
2019-Sep-14 19:50 271 2 gusting 4 13.9
2019-Sep-14 19:40 270 3 gusting 5 14.4
2019-Sep-14 19:30 261 2 gusting 6 14.4
2019-Sep-14 19:20 276 5 gusting 6 15.0
2019-Sep-14 19:10 246 3 gusting 5 15.0
2019-Sep-14 19:00 261 5 gusting 6 15.0
2019-Sep-14 18:50 270 6 gusting 10 15.6
2019-Sep-14 18:40 267 6 gusting 9 15.6
2019-Sep-14 18:30 270 6 gusting 10 15.6
2019-Sep-14 18:20 273 7 gusting 10 16.1
2019-Sep-14 18:10 270 6 gusting 10 16.1
2019-Sep-14 18:00 270 5 gusting 6 16.7
2019-Sep-14 17:50 270 6 gusting 11 16.7
2019-Sep-14 17:40 270 5 gusting 6 16.7
2019-Sep-14 17:30 270 6 gusting 10 17.2
2019-Sep-14 17:20 266 3 gusting 5 17.2
2019-Sep-14 17:10 264 4 gusting 6 17.8
2019-Sep-14 17:00 243 3 gusting 6 17.8
2019-Sep-14 16:50 242 2 gusting 4 17.8
2019-Sep-14 16:40 254 3 gusting 5 18.3
2019-Sep-14 16:30 255 3 gusting 6 18.3
2019-Sep-14 16:20 240 3 gusting 9 18.3
2019-Sep-14 16:10 246 4 gusting 6 18.3
2019-Sep-14 16:00 246 3 gusting 6 18.3
2019-Sep-14 15:50 223 4 gusting 8 18.3
2019-Sep-14 15:40 254 3 gusting 6 18.3
2019-Sep-14 15:30 256 6 gusting 7 18.9
2019-Sep-14 15:20 210 3 gusting 6 18.9
2019-Sep-14 15:10 244 2 gusting 6 18.9
2019-Sep-14 15:00 245 5 gusting 6 18.9
2019-Sep-14 14:50 236 5 gusting 6 18.9
2019-Sep-14 14:40 255 5 gusting 6 19.4
2019-Sep-14 14:30 262 6 gusting 8 19.4
2019-Sep-14 14:20 249 5 gusting 10 19.4
2019-Sep-14 14:10 260 7 gusting 10 19.4
2019-Sep-14 14:00 246 7 gusting 11 19.4
2019-Sep-14 13:50 245 5 gusting 8 19.4
2019-Sep-14 13:40 236 5 gusting 6 19.4
2019-Sep-14 13:30 258 4 gusting 6 19.4
2019-Sep-14 13:20 264 6 gusting 8 19.4
2019-Sep-14 13:10 267 5 gusting 7 19.4
2019-Sep-14 13:00 254 6 gusting 10 19.4
2019-Sep-14 12:50 260 6 gusting 8 19.4
2019-Sep-14 12:40 249 6 gusting 8 19.4
2019-Sep-14 12:30 262 5 gusting 8 19.4
2019-Sep-14 12:20 18.9
2019-Sep-14 12:10 202 19.4
2019-Sep-14 12:00 202 19.4
2019-Sep-14 11:50 19.4
2019-Sep-14 11:40 19.4
2019-Sep-14 11:30 18.9
2019-Sep-14 11:20 18.9
2019-Sep-14 11:10 18.9
2019-Sep-14 11:00 18.3
2019-Sep-14 10:50 18.3
2019-Sep-14 10:40 17.8
2019-Sep-14 10:30 17.8
2019-Sep-14 10:20 17.2
2019-Sep-14 10:10 16.7
2019-Sep-14 10:00 16.1
2019-Sep-14 09:50 15.6
2019-Sep-14 09:40 15.0
2019-Sep-14 09:30 14.4
2019-Sep-14 09:20 13.9
2019-Sep-14 09:10 13.3
2019-Sep-14 09:00 12.8
2019-Sep-14 08:50 11.7
2019-Sep-14 08:40 11.7
2019-Sep-14 08:30 11.1
2019-Sep-14 08:20 10.6
2019-Sep-14 08:10 10.6
2019-Sep-14 08:00 10.0
2019-Sep-14 07:50 9.4
2019-Sep-14 07:40 9.4
2019-Sep-14 07:30 8.9
2019-Sep-14 07:20 8.9
2019-Sep-14 07:10 8.9
2019-Sep-14 07:00 8.3
2019-Sep-14 06:50 8.3
2019-Sep-14 06:40 7.8
2019-Sep-14 06:30 7.8
2019-Sep-14 06:20 7.8
2019-Sep-14 06:10 7.2
2019-Sep-14 06:00 7.8
2019-Sep-14 05:50 7.8
2019-Sep-14 05:40 7.8
2019-Sep-14 05:30 7.8
2019-Sep-14 05:20 7.8
2019-Sep-14 05:10 7.2
2019-Sep-14 05:00 7.8
2019-Sep-14 04:50 7.8
2019-Sep-14 04:40 7.8
2019-Sep-14 04:30 7.8
2019-Sep-14 04:20 7.8
2019-Sep-14 04:10 7.8
2019-Sep-14 04:00 8.3
2019-Sep-14 03:50 8.3
2019-Sep-14 03:40 7.8
2019-Sep-14 03:30 8.3
2019-Sep-14 03:20 7.8
2019-Sep-14 03:10 8.3
2019-Sep-14 03:00 7.8
2019-Sep-14 02:50 7.8
2019-Sep-14 02:40 7.8
2019-Sep-14 02:30 7.8
2019-Sep-14 02:20 8.3
2019-Sep-14 02:10 8.3
2019-Sep-14 02:00 8.3
2019-Sep-14 01:50 8.3
2019-Sep-14 01:40 8.9
2019-Sep-14 01:30 8.3
2019-Sep-14 01:20 8.9
2019-Sep-14 01:10 022 8.9
2019-Sep-14 01:00 8.9
2019-Sep-14 00:50 045 9.4
2019-Sep-14 00:40 027 1 gusting 1 9.4
2019-Sep-14 00:30 025 0 gusting 1 9.4
2019-Sep-14 00:20 9.4
2019-Sep-14 00:10 9.4
2019-Sep-14 00:00 9.4
2019-Sep-13 23:50 10.0
2019-Sep-13 23:40 9.4
2019-Sep-13 23:30 015 0 gusting 1 9.4
2019-Sep-13 23:20 10.0
2019-Sep-13 23:10 045 9.4
2019-Sep-13 23:00 007 0 gusting 2 9.4
2019-Sep-13 22:50 022 10.0
2019-Sep-13 22:40 045 10.0
2019-Sep-13 22:30 10.0
2019-Sep-13 22:20 10.0
2019-Sep-13 22:10 022 10.6
2019-Sep-13 22:00 009 10.6
2019-Sep-13 21:50 10.6
2019-Sep-13 21:40 10.6
2019-Sep-13 21:30 023 0 gusting 1 10.6
2019-Sep-13 21:20 11.1
2019-Sep-13 21:10 305 11.1
2019-Sep-13 21:00 157 11.1
2019-Sep-13 20:50 225 11.1
2019-Sep-13 20:40 315 11.7
2019-Sep-13 20:30 11.7
2019-Sep-13 20:20 051 11.7
2019-Sep-13 20:10 320 11.7
2019-Sep-13 20:00 324 11.7
2019-Sep-13 19:50 168 11.7
2019-Sep-13 19:40 061 0 gusting 1 12.2
2019-Sep-13 19:30 020 12.2
2019-Sep-13 19:20 049 1 gusting 3 12.2
2019-Sep-13 19:10 073 1 gusting 1 12.8
2019-Sep-13 19:00 045 2 gusting 3 12.2
2019-Sep-13 18:50 061 1 gusting 2 12.8
2019-Sep-13 18:40 040 1 gusting 3 13.3
2019-Sep-13 18:30 047 1 gusting 3 13.3
2019-Sep-13 18:20 050 1 gusting 3 13.3
2019-Sep-13 18:10 023 3 gusting 5 13.3
2019-Sep-13 18:00 049 1 gusting 3 13.9
2019-Sep-13 17:50 053 0 gusting 2 13.9
2019-Sep-13 17:40 049 0 gusting 1 14.4
2019-Sep-13 17:30 006 0 gusting 1 14.4
2019-Sep-13 17:20 015 0 gusting 1 14.4
2019-Sep-13 17:10 032 1 gusting 2 14.4
2019-Sep-13 17:00 005 1 gusting 2 15.0
2019-Sep-13 16:50 016 1 gusting 2 15.0
2019-Sep-13 16:40 026 0 gusting 2 15.0
2019-Sep-13 16:30 351 1 gusting 4 15.0
2019-Sep-13 16:20 327 1 gusting 3 15.6
2019-Sep-13 16:10 047 2 gusting 3 15.6
2019-Sep-13 16:00 356 0 gusting 2 15.6
2019-Sep-13 15:50 358 0 gusting 2 15.6
2019-Sep-13 15:40 037 0 gusting 3 15.6
2019-Sep-13 15:30 352 2 gusting 6 15.6
2019-Sep-13 15:20 021 0 gusting 2 15.6
2019-Sep-13 15:10 033 0 gusting 1 15.6
2019-Sep-13 15:00 027 2 gusting 5 16.1
2019-Sep-13 14:50 033 0 gusting 2 16.1
2019-Sep-13 14:40 056 2 gusting 3 16.1
2019-Sep-13 14:30 068 3 gusting 5 16.1
2019-Sep-13 14:20 017 1 gusting 4 16.7
2019-Sep-13 14:10 081 1 gusting 3 16.7
2019-Sep-13 14:00 007 2 gusting 4 16.1